Location: Joplin, MO
(37.0842°N, 94.5133°W)
Time: 14:09:39
(UTC+02:00)

Altair - All Passes

Search period start: 30 March 2023 00:00
Search period end: 09 April 2023 00:00
Orbit: 1501 x 1682 km, 47.2° (Epoch: 29 March)

Date Brightness Start Highest point End Pass type
(mag) Time Alt. Az. Time Alt. Az. Time Alt. Az.
30 Mar - 09:48:36 10° SSE 09:54:39 19° SE 10:00:34 10° E visible
30 Mar - 11:48:41 10° SW 11:58:12 69° SE 12:07:24 10° ENE visible
30 Mar - 13:53:59 10° W 14:03:14 55° NNW 14:12:15 10° ENE daylight
30 Mar - 16:00:37 10° WNW 16:09:27 46° N 16:18:10 10° ENE daylight
30 Mar - 18:05:57 10° WNW 18:15:10 77° NNE 18:24:25 10° ESE daylight
30 Mar - 20:11:11 10° WNW 20:19:19 37° SW 20:27:35 10° SSE daylight
31 Mar - 09:24:12 10° SSE 09:29:35 16° SE 09:34:51 10° E visible
31 Mar - 11:23:34 10° SW 11:33:02 64° SE 11:42:12 10° ENE visible
31 Mar - 13:28:39 10° W 13:37:58 58° NNW 13:47:02 10° ENE visible
31 Mar - 15:35:18 10° WNW 15:44:09 45° N 15:52:51 10° ENE daylight
31 Mar - 17:40:45 10° WNW 17:49:58 73° NNE 17:59:10 10° ESE daylight
31 Mar - 19:45:53 10° WNW 19:54:13 41° SW 20:02:40 10° SSE daylight
01 Apr - 08:59:58 10° SSE 09:04:31 14° ESE 09:08:59 10° E visible
01 Apr - 10:58:28 10° SW 11:07:53 59° SE 11:16:59 10° ENE visible
01 Apr - 13:03:18 10° WSW 13:12:42 60° NNW 13:21:50 10° ENE visible
01 Apr - 15:09:58 10° WNW 15:18:50 45° N 15:27:32 10° ENE daylight
01 Apr - 17:15:32 10° WNW 17:24:45 69° NNE 17:33:54 10° ESE daylight
01 Apr - 19:20:36 10° WNW 19:29:07 45° SW 19:37:44 10° SSE daylight
02 Apr - 08:36:01 10° SE 08:39:27 12° ESE 08:42:50 10° E visible
02 Apr - 10:33:23 10° SSW 10:42:45 54° SE 10:51:46 10° ENE visible
02 Apr - 12:37:58 10° WSW 12:47:27 63° NNW 12:56:39 10° ENE visible
02 Apr - 14:44:39 10° WNW 14:53:32 45° N 15:02:14 10° ENE daylight
02 Apr - 16:50:20 10° WNW 16:59:32 66° NNE 17:08:39 10° ESE daylight
02 Apr - 18:55:21 10° WNW 19:04:01 49° SW 19:12:45 10° SSE daylight
03 Apr - 08:12:59 10° SE 08:14:23 10° ESE 08:15:46 10° ESE visible
03 Apr - 10:08:21 10° SSW 10:17:36 50° SE 10:26:32 10° ENE visible
03 Apr - 12:12:38 10° WSW 12:22:12 67° NNW 12:31:27 10° ENE visible
03 Apr - 14:19:18 10° WNW 14:28:13 45° N 14:36:56 10° ENE daylight
03 Apr - 16:25:07 10° WNW 16:34:18 63° NNE 16:43:22 10° ESE daylight
03 Apr - 18:30:06 10° WNW 18:38:54 53° SW 18:47:45 10° SSE daylight
03 Apr - 20:39:36 10° WSW 20:42:02 11° WSW 20:44:30 10° SW daylight
04 Apr - 09:43:20 10° SSW 09:52:28 46° SE 10:01:17 10° ENE visible
04 Apr - 11:47:19 10° WSW 11:56:57 70° NNW 12:06:16 10° ENE visible
04 Apr - 13:53:57 10° WNW 14:02:55 45° N 14:11:39 10° ENE daylight
04 Apr - 15:59:53 10° WNW 16:09:03 60° NNE 16:18:05 10° E daylight
04 Apr - 18:04:51 10° WNW 18:13:47 58° SW 18:22:43 10° SE daylight
04 Apr - 20:13:10 10° W 20:16:59 13° WSW 20:20:51 10° SSW daylight
05 Apr - 09:18:20 10° SSW 09:27:20 42° SE 09:36:01 10° ENE visible
05 Apr - 11:22:01 10° WSW 11:31:43 74° NNW 11:41:06 10° ENE visible
05 Apr - 13:28:35 10° WNW 13:37:36 46° N 13:46:23 10° ENE visible
05 Apr - 15:34:39 10° WNW 15:43:48 57° NNE 15:52:47 10° E daylight
05 Apr - 17:39:37 10° WNW 17:48:39 63° SW 17:57:40 10° SE daylight
05 Apr - 19:47:12 10° W 19:51:57 15° WSW 19:56:44 10° SSW daylight
06 Apr - 08:53:23 10° SSW 09:02:12 39° SE 09:10:44 10° ENE visible
06 Apr - 10:56:44 10° WSW 11:06:30 78° NNW 11:15:55 10° ENE visible
06 Apr - 13:03:13 10° W 13:12:17 46° N 13:21:07 10° ENE visible
06 Apr - 15:09:24 10° WNW 15:18:32 55° NNE 15:27:30 10° E daylight
06 Apr - 17:14:24 10° WNW 17:23:31 68° SW 17:32:35 10° SE daylight
06 Apr - 19:21:25 10° W 19:26:54 18° SW 19:32:25 10° SSW daylight
07 Apr - 08:28:28 10° SSW 08:37:05 35° SE 08:45:25 10° ENE visible
07 Apr - 10:31:27 10° WSW 10:41:17 82° NNW 10:50:44 10° ENE visible
07 Apr - 12:37:51 10° W 12:46:59 47° N 12:55:51 10° ENE visible
07 Apr - 14:44:08 10° WNW 14:53:16 53° NNE 15:02:11 10° E daylight
07 Apr - 16:49:10 10° WNW 16:58:23 73° SW 17:07:29 10° SE daylight
07 Apr - 18:55:47 10° W 19:01:51 20° SW 19:07:58 10° SSW daylight
08 Apr - 08:03:36 10° S 08:11:58 32° SE 08:20:04 10° ENE visible
08 Apr - 10:06:12 10° WSW 10:16:04 87° NNW 10:25:33 10° ENE visible
08 Apr - 12:12:28 10° W 12:21:40 48° N 12:30:36 10° ENE visible
08 Apr - 14:18:52 10° WNW 14:27:59 51° NNE 14:36:53 10° E daylight
08 Apr - 16:23:57 10° WNW 16:33:13 79° SW 16:42:22 10° SE daylight
08 Apr - 18:30:14 10° W 18:36:48 22° SW 18:43:24 10° S daylight
